Waarnemingen

Advertentie
Mijn weer
Santander, Spanje (8023): temperatuur & dauwpunt: 08.08.2020 06:00:00 - 14.08.2020 06:00:00 (CEST)Santander, Spanje (8023): windsnelheid: 08.08.2020 06:00:00 - 14.08.2020 06:00:00 (CEST)Santander, Spanje (8023): windrichting: 08.08.2020 06:00:00 - 14.08.2020 06:00:00 (CEST)Santander, Spanje (8023): luchtdruk: 08.08.2020 06:00:00 - 14.08.2020 06:00:00 (CEST)Santander, Spanje (8023): zicht: 08.08.2020 06:00:00 - 14.08.2020 06:00:00 (CEST)Santander, Spanje (8023): neerslag: 08.08.2020 06:00:00 - 14.08.2020 06:00:00 (CEST)
Datum & Tijd tt [°C] td [°C] ff [km/u] ff [kn] dd ppp [hPa] vv [km] rr [mm]
14.08.2020 06:00:00 - - - - - - - -
14.08.2020 05:00:00 16,7 14,9 9 5 ZZO 1017,9 12 -
14.08.2020 04:00:00 17,0 15,7 11 6 ZZO 1018,2 10 0,0
14.08.2020 03:00:00 17,9 15,9 8 4 ZZO 1018,6 11 0,0
14.08.2020 02:00:00 18,3 15,9 5 3 Z 1019,2 12 -
14.08.2020 01:00:00 18,8 15,5 8 4 Z 1019,4 12 0,0
14.08.2020 00:00:00 19,3 15,4 5 3 ZZW 1019,6 9 0,0
13.08.2020 23:00:00 19,6 15,9 5 3 ZW 1019,7 12 -
13.08.2020 22:00:00 19,8 16,1 4 2 WZW 1019,2 13 0,0
13.08.2020 21:00:00 20,1 15,9 8 4 WNW 1018,9 12 0,0
13.08.2020 20:00:00 20,5 15,5 9 5 WNW 1018,7 20 -
13.08.2020 19:00:00 20,8 15,3 13 7 WNW 1018,4 14 0,0
13.08.2020 18:00:00 21,0 15,5 15 8 WNW 1018,4 14 0,0
13.08.2020 17:00:00 21,0 16,0 15 8 WNW 1018,5 22 -
13.08.2020 16:00:00 21,0 15,5 15 8 WNW 1018,6 12 0,0
13.08.2020 15:00:00 21,3 15,8 18 10 WNW 1018,6 13 0,0
13.08.2020 14:00:00 20,9 16,9 21 11 WNW 1018,6 20 -
13.08.2020 13:00:00 21,5 16,9 18 10 WNW 1018,4 12 0,0
13.08.2020 12:00:00 20,7 17,1 21 11 W 1018,2 15 0,0
13.08.2020 11:00:00 19,7 17,1 21 11 WNW 1017,9 20 -
13.08.2020 10:00:00 19,5 16,9 22 12 W 1017,5 14 0,0
13.08.2020 09:00:00 19,0 17,0 28 15 WNW 1017,0 11 0,0
13.08.2020 08:00:00 19,4 15,9 28 15 WNW 1016,5 18 -
13.08.2020 07:00:00 19,4 15,9 26 14 W 1016,0 14 0,0
13.08.2020 06:00:00 19,5 16,0 31 17 W 1015,7 14 0,0
13.08.2020 05:00:00 19,5 16,2 31 17 W 1015,5 15 -
13.08.2020 04:00:00 19,4 16,2 37 20 WNW 1015,2 13 0,0
13.08.2020 03:00:00 19,3 15,8 42 23 W 1014,7 13 0,0
13.08.2020 02:00:00 19,2 15,9 41 22 W 1014,6 12 -
13.08.2020 01:00:00 18,9 16,7 42 23 W 1014,6 7 0,2
13.08.2020 00:00:00 19,0 16,6 50 27 W 1014,3 11 0,4
12.08.2020 23:00:00 19,2 17,7 39 21 W 1013,7 8 -
12.08.2020 22:00:00 18,7 17,7 37 20 W 1013,4 3,0 3,0
12.08.2020 21:00:00 19,5 18,5 31 17 W 1012,7 7 3,0
12.08.2020 20:00:00 19,6 18,6 35 19 W 1012,3 4,0 -
12.08.2020 19:00:00 19,9 18,0 9 5 W 1012,0 14 0,4
12.08.2020 18:00:00 19,2 15,9 11 6 W 1011,5 6 9,0
12.08.2020 17:00:00 22,1 20,0 15 8 NW 1011,4 20 -
12.08.2020 16:00:00 22,3 20,8 15 8 NW 1011,3 8 2,0
12.08.2020 15:00:00 23,2 20,2 15 8 NW 1011,7 11 0,0
12.08.2020 14:00:00 23,1 20,1 13 7 NNW 1011,8 15 -
12.08.2020 13:00:00 23,9 20,6 8 4 N 1011,5 10 0,0
12.08.2020 12:00:00 23,0 20,3 9 5 N 1011,6 11 0,0
12.08.2020 11:00:00 22,1 20,2 8 4 N 1011,3 12 -
12.08.2020 10:00:00 22,8 20,0 4 2 NNW 1010,8 13 0,0
12.08.2020 09:00:00 20,3 19,5 11 6 ZZO 1011,4 8 0,0
12.08.2020 08:00:00 20,2 19,5 11 6 Z 1011,2 15 -
12.08.2020 07:00:00 20,4 19,4 8 4 WZW 1010,8 9 0,0
12.08.2020 06:00:00 20,4 19,7 9 5 ZZW 1011,5 7 0,0
12.08.2020 05:00:00 20,7 20,0 5 3 ZZW 1012,1 15 -
12.08.2020 04:00:00 20,6 19,9 5 3 ZW 1012,4 7 0,2
12.08.2020 03:00:00 20,7 20,0 9 5 Z 1012,3 4,5 0,4
12.08.2020 02:00:00 20,8 20,1 9 5 Z 1012,6 15 -
12.08.2020 01:00:00 21,0 20,0 11 6 W 1012,7 - 0,4
12.08.2020 00:00:00 21,2 20,2 9 5 ZW 1013,8 8 0,0
11.08.2020 23:00:00 21,2 20,5 13 7 WZW 1012,6 15 -
11.08.2020 22:00:00 21,4 20,4 16 9 W 1011,9 7 0,0
11.08.2020 21:00:00 23,0 20,3 9 5 WZW 1011,5 11 0,0
11.08.2020 20:00:00 23,9 19,2 15 8 O 1011,1 20 -
11.08.2020 19:00:00 22,9 20,1 18 10 O 1011,4 12 0,0
11.08.2020 18:00:00 23,6 18,5 13 7 W 1011,2 15 0,2
11.08.2020 17:00:00 22,8 17,9 13 7 ZZW 1012,9 8 -
11.08.2020 16:00:00 22,8 20,7 8 4 W 1013,5 9 0,0
11.08.2020 15:00:00 23,5 20,8 21 11 W 1013,4 10 0,0
11.08.2020 14:00:00 24,1 21,0 5 3 N 1012,0 12 -
11.08.2020 13:00:00 23,5 20,6 9 5 N 1011,8 9 0,0
11.08.2020 12:00:00 22,6 20,3 5 3 N 1012,2 9 0,0
11.08.2020 11:00:00 22,5 20,0 4 2 NNW 1012,3 10 -
11.08.2020 10:00:00 21,6 20,1 5 3 WNW 1012,5 9 0,0
11.08.2020 09:00:00 21,1 19,7 8 4 W 1012,4 8 0,0
11.08.2020 08:00:00 20,7 19,7 2 1 NNW 1012,4 9 -
11.08.2020 07:00:00 20,0 19,2 8 4 ZZO 1012,3 7 0,0
11.08.2020 06:00:00 20,3 19,1 4 2 O 1012,3 7 0,0
11.08.2020 05:00:00 20,6 19,3 2 1 WNW 1012,9 10 -
11.08.2020 04:00:00 20,6 19,3 5 3 Z 1013,3 9 0,0
11.08.2020 03:00:00 20,5 19,3 8 4 ZZW 1013,6 9 0,0
11.08.2020 02:00:00 20,4 19,6 9 5 Z 1014,1 8 -
11.08.2020 01:00:00 20,4 19,7 8 4 Z 1014,1 7 0,0
11.08.2020 00:00:00 20,3 19,6 4 2 WZW 1014,1 6 0,0
10.08.2020 23:00:00 20,4 19,6 5 3 WZW 1014,3 8 -
10.08.2020 22:00:00 20,6 19,4 9 5 W 1013,7 7 0,0
10.08.2020 21:00:00 21,1 19,6 11 6 WNW 1013,4 8 0,0
10.08.2020 20:00:00 21,8 19,7 18 10 W 1013,0 12 -
10.08.2020 19:00:00 22,6 18,4 13 7 W 1013,0 13 0,0
10.08.2020 18:00:00 22,7 19,3 13 7 WNW 1012,9 11 0,0
10.08.2020 17:00:00 23,0 19,0 9 5 NW 1013,0 12 -
10.08.2020 16:00:00 23,0 19,0 9 5 NNW 1013,3 12 0,0
10.08.2020 15:00:00 23,0 19,0 11 6 NW 1013,3 13 0,0
10.08.2020 14:00:00 22,6 18,8 9 5 NNW 1013,2 13 -
10.08.2020 13:00:00 22,1 18,1 9 5 NW 1013,4 12 0,0
10.08.2020 12:00:00 22,4 18,8 11 6 WNW 1013,2 14 0,0
10.08.2020 11:00:00 21,3 19,0 13 7 W 1013,8 12 -
10.08.2020 10:00:00 21,0 18,9 13 7 W 1013,7 11 0,0
10.08.2020 09:00:00 20,5 18,6 9 5 ZW 1013,7 9 0,0
10.08.2020 08:00:00 20,3 18,4 11 6 WZW 1013,4 12 -
10.08.2020 07:00:00 20,3 18,8 11 6 WZW 1013,4 9 0,0
10.08.2020 06:00:00 20,4 18,9 8 4 WZW 1013,3 6 0,0
10.08.2020 05:00:00 20,5 18,6 8 4 WZW 1013,4 8 -
10.08.2020 04:00:00 20,5 18,6 13 7 WZW 1013,4 10 0,0
10.08.2020 03:00:00 20,5 18,8 15 8 WZW 1013,8 9 0,0
10.08.2020 02:00:00 20,7 18,8 9 5 WZW 1014,8 10 -
10.08.2020 01:00:00 20,7 19,0 11 6 WZW 1015,0 10 0,0
10.08.2020 00:00:00 20,3 19,1 16 9 W 1015,1 7 0,0
09.08.2020 23:00:00 20,8 19,5 15 8 W 1015,0 12 -
09.08.2020 22:00:00 21,1 19,6 16 9 W 1015,1 8 0,0
09.08.2020 21:00:00 21,6 19,5 13 7 WZW 1015,2 10 0,0
09.08.2020 20:00:00 22,0 19,7 11 6 W 1014,3 12 -
09.08.2020 19:00:00 22,4 19,8 11 6 WNW 1014,3 10 0,0
09.08.2020 18:00:00 22,7 19,9 13 7 NW 1014,6 11 0,0
09.08.2020 17:00:00 22,7 19,9 13 7 NW 1014,8 15 -
09.08.2020 16:00:00 23,3 19,7 11 6 NW 1014,9 12 0,0
09.08.2020 15:00:00 23,6 19,9 13 7 NW 1015,2 12 0,0
09.08.2020 14:00:00 23,6 20,5 15 8 WNW 1015,5 15 -
09.08.2020 13:00:00 24,1 20,8 15 8 WNW 1015,8 13 0,0
09.08.2020 12:00:00 23,3 20,4 13 7 W 1016,1 14 0,0
09.08.2020 11:00:00 22,0 20,5 8 4 W 1016,6 12 -
09.08.2020 10:00:00 21,7 20,3 8 4 W 1016,7 12 0,0
09.08.2020 09:00:00 21,0 19,8 4 2 ZZW 1016,8 12 0,0
09.08.2020 08:00:00 20,2 19,4 5 3 WZW 1016,6 12 -
09.08.2020 07:00:00 20,2 19,4 11 6 WZW 1016,5 9 0,0
09.08.2020 06:00:00 20,3 19,3 9 5 WZW 1016,8 10 0,0
09.08.2020 05:00:00 20,6 19,4 11 6 WZW 1017,0 12 -
09.08.2020 04:00:00 21,0 19,8 8 4 WZW 1017,7 11 0,0
09.08.2020 03:00:00 20,9 19,9 9 5 WZW 1018,2 10 0,0
09.08.2020 02:00:00 21,1 19,9 13 7 WZW 1018,4 10 -
09.08.2020 01:00:00 21,6 20,1 5 3 OZO 1017,3 11 0,0
09.08.2020 00:00:00 21,8 20,3 21 11 NNW 1017,7 9 0,0
08.08.2020 23:00:00 21,2 20,0 24 13 OZO 1016,7 8 -
08.08.2020 22:00:00 21,9 19,6 8 4 N 1019,5 10 0,0
08.08.2020 21:00:00 22,9 19,1 5 3 ZZW 1020,0 14 0,0
08.08.2020 20:00:00 22,7 19,5 11 6 O 1017,7 15 -
08.08.2020 19:00:00 22,7 19,3 13 7 NW 1019,0 10 0,0
08.08.2020 18:00:00 23,6 19,5 11 6 N 1018,8 12 0,0
08.08.2020 17:00:00 23,9 20,0 11 6 N 1019,3 20 -
08.08.2020 16:00:00 23,6 19,9 13 7 NNW 1019,7 12 0,0
08.08.2020 15:00:00 23,9 20,0 11 6 NNW 1019,9 13 0,0
08.08.2020 14:00:00 23,5 20,2 13 7 NW 1020,2 20 -
08.08.2020 13:00:00 23,7 20,0 11 6 NW 1020,3 14 0,0
08.08.2020 12:00:00 23,0 19,4 13 7 WNW 1020,6 14 0,0
08.08.2020 11:00:00 23,0 19,6 13 7 W 1020,7 20 -
08.08.2020 10:00:00 22,5 19,5 13 7 W 1020,9 15 0,0
08.08.2020 09:00:00 21,0 18,4 11 6 WZW 1020,8 16 0,0
08.08.2020 08:00:00 19,9 18,0 9 5 WZW 1020,7 15 -
08.08.2020 07:00:00 19,5 18,0 11 6 WZW 1020,6 - 0,0
08.08.2020 06:00:00 19,6 18,3 15 8 WZW 1020,4 10 0,0

tt = temperatuur
td = dauwpunt
ff = windsnelheid
dd = windrichting
ppp = luchtdruk
vv = zicht
rr = neerslag

Weerstations in de omgeving